Weather History for Williamsport, PA

Change the Weather History Date:

Thursday, October 24, 2013

  Actual Average Record
Temperature  
Mean Temperature 44 °F 49 °F  
Max Temperature 50 °F 59 °F 77 °F (1963)
Min Temperature 37 °F 39 °F 20 °F (1969)
Degree Days  
Heating Degree Days 21 16  
Month to date heating degree days 186 294  
Since 1 July heating degree days 312 422  
Cooling Degree Days 0 0  
Month to date cooling degree days 30 1  
Year to date cooling degree days 863 698  
Moisture  
Dew Point 30 °F    
Average Humidity 62    
Maximum Humidity 85    
Minimum Humidity 39    
Precipitation  
Precipitation T in 0.10 in 2.20 in (1923)
Month to date precipitation 2.75 2.68  
Year to date precipitation 25.97 33.87  
Snow  
Snow 0.00 in - - ()
Month to date snowfall 0.0  
Since 1 July snowfall 0.0  
Since 1 September snowfall 0.0  
Snow Depth 0.00 in    
Sea Level Pressure  
Sea Level Pressure 29.94 in    
Wind  
Wind Speed 11 mph (West)    
Max Wind Speed 23 mph    
Max Gust Speed 29 mph    
Visibility 10 miles    
Events      
T = Trace of Precipitation, MM = Missing Value Source: NWS Daily Summary

Daily Weather History Graph

Daily Weather History Graph

Search for Another Location

Airport:

Trip Planner

Search our weather history database for the weather conditions in past years. The results will help you decide how hot, cold, wet, or windy it might be!

Date:

Astronomy

Oct. 24, 2013 Rise Set
Actual Time 7:29 AM EDT 6:13 PM EDT
Civil Twilight 7:01 AM EDT 6:41 PM EDT
Nautical Twilight 6:29 AM EDT 7:13 PM EDT
Astronomical Twilight 5:57 AM EDT 7:45 PM EDT
Moon 10:34 PM EDT (10/24) 12:30 PM EDT (10/24)
Length of Visible Light 11h 39m
Length of Day
10h 43m
Waning Gibbous, 71% of the Moon is Illuminated
Oct 24
Waning Gibbous
Oct 26
Last Quarter
Nov 3
New
Nov 10
First Quarter
Nov 17
Full

Hourly Weather History & Observations

Time (EDT) Temp. Windchill Dew Point Humidity Pressure Visibility Wind Dir Wind Speed Gust Speed Precip Events Conditions
12:54 AM 41.0 °F 35.2 °F 34.0 °F 76% 29.84 in 10.0 mi West 9.2 mph - N/A   Mostly Cloudy
1:54 AM 41.0 °F 33.9 °F 34.0 °F 76% 29.85 in 10.0 mi West 12.7 mph - N/A   Scattered Clouds
2:54 AM 39.0 °F 34.0 °F 33.1 °F 79% 29.86 in 10.0 mi West 6.9 mph - N/A   Clear
3:54 AM 37.9 °F 32.7 °F 33.1 °F 83% 29.88 in 10.0 mi West 6.9 mph - N/A   Clear
4:54 AM 37.9 °F 32.7 °F 32.0 °F 79% 29.89 in 10.0 mi West 6.9 mph - N/A   Scattered Clouds
5:54 AM 37.9 °F 33.5 °F 32.0 °F 79% 29.90 in 10.0 mi West 5.8 mph - N/A   Scattered Clouds
6:10 AM 37.4 °F 34.9 °F 32.0 °F 81% 29.89 in 10.0 mi WSW 3.5 mph - N/A   Mostly Cloudy
6:38 AM 37.4 °F 32.8 °F 32.0 °F 81% 29.90 in 10.0 mi West 5.8 mph - N/A   Mostly Cloudy
6:54 AM 37.9 °F 32.1 °F 32.0 °F 79% 29.92 in 10.0 mi West 8.1 mph - N/A   Mostly Cloudy
7:54 AM 39.0 °F 34.8 °F 32.0 °F 76% 29.93 in 10.0 mi West 5.8 mph - 0.00 in   Mostly Cloudy
8:54 AM 41.0 °F 34.3 °F 32.0 °F 70% 29.94 in 10.0 mi West 11.5 mph 19.6 mph N/A   Mostly Cloudy
9:54 AM 43.0 °F 35.4 °F 30.0 °F 60% 29.94 in 10.0 mi West 16.1 mph 26.5 mph N/A   Clear
10:54 AM 45.0 °F 37.9 °F 28.9 °F 53% 29.94 in 10.0 mi WSW 16.1 mph 28.8 mph N/A   Mostly Cloudy
11:54 AM 48.0 °F - 28.9 °F 48% 29.94 in 10.0 mi West 17.3 mph 28.8 mph N/A   Mostly Cloudy
12:54 PM 48.0 °F - 28.0 °F 46% 29.94 in 10.0 mi WNW 16.1 mph 26.5 mph N/A   Mostly Cloudy
1:54 PM 48.0 °F - 26.1 °F 42% 29.93 in 10.0 mi West 18.4 mph 26.5 mph N/A   Mostly Cloudy
2:54 PM 48.0 °F - 24.1 °F 39% 29.94 in 10.0 mi West 17.3 mph 27.6 mph N/A   Mostly Cloudy
3:54 PM 48.9 °F - 26.1 °F 41% 29.95 in 10.0 mi West 15.0 mph 27.6 mph N/A   Mostly Cloudy
4:54 PM 46.9 °F - 25.0 °F 42% 29.96 in 10.0 mi West 13.8 mph 25.3 mph N/A   Overcast
5:54 PM 45.0 °F 38.9 °F 26.1 °F 48% 29.98 in 10.0 mi WNW 12.7 mph - N/A   Scattered Clouds
6:54 PM 42.1 °F 36.6 °F 30.0 °F 62% 30.01 in 10.0 mi West 9.2 mph - N/A   Clear
7:54 PM 39.9 °F 35.1 °F 30.0 °F 68% 30.03 in 10.0 mi West 6.9 mph - N/A   Clear
8:54 PM 39.9 °F 35.1 °F 30.0 °F 68% 30.04 in 10.0 mi West 6.9 mph - N/A   Clear
9:54 PM 37.9 °F 32.7 °F 30.9 °F 76% 30.04 in 10.0 mi WNW 6.9 mph - N/A   Partly Cloudy
10:54 PM 37.9 °F 32.7 °F 30.9 °F 76% 30.05 in 10.0 mi WSW 6.9 mph - N/A   Overcast
11:54 PM 39.0 °F 31.8 °F 30.0 °F 70% 30.06 in 10.0 mi West 11.5 mph - N/A   Overcast